CAPE
145 113 115 75 68 21 8 4 2 1 1 8 9 7 18 19 43 33 27 3 24 37 22 0 3 0 0 0 0 0 31 40 241 209 64 34 43 38 28 15 15 43 40 0 1 101 22
113 196 140 118 163 79 12 10 2 1 1 6 10 7 9 16 35 41 37 9 4 39 44 0 6 20 0 0 0 0 0 122 148 126 63 75 75 35 6 14 27 2 32 2 41 2 0
24 37 200 195 154 171 29 13 4 1 0 5 7 6 8 14 22 23 30 13 7 25 40 16 0 1 0 0 0 0 284 188 126 79 45 2 55 47 54 40 4 7 50 0 53 56 2
16 17 25 154 185 151 132 11 5 1 1 5 5 4 5 14 20 23 9 10 15 9 27 33 0 0 0 0 0 0 20 116 47 53 3 19 4 2 40 10 1 44 58 87 68 72 8
7 16 25 17 91 173 152 8 5 3 2 3 6 3 1 4 13 12 10 4 9 5 1 0 0 0 0 0 11 0 0 29 28 33 33 3 14 26 13 23 26 58 39 2 85 33 21
29 33 31 23 37 163 127 44 9 6 3 2 3 0 5 2 12 11 12 2 0 0 0 0 0 0 0 0 0 0 0 2 39 20 28 4 21 9 4 7 2 58 32 25 44 16 14
33 30 57 39 11 39 128 100 11 7 4 2 1 0 5 0 2 6 2 0 0 0 0 0 0 0 0 0 0 3 0 3 7 14 3 3 5 4 2 5 0 5 11 43 46 9 3
26 27 44 53 32 50 120 84 7 10 4 3 0 2 0 1 2 11 0 0 0 0 0 0 0 0 0 0 4 17 4 22 19 15 6 12 4 3 4 2 1 11 12 31 62 2 4
39 29 49 85 58 45 102 89 12 11 7 4 0 2 0 0 1 1 0 0 0 0 0 0 0 0 0 0 0 0 0 15 5 8 6 19 12 8 4 4 13 35 22 6 1 26 13
45 40 74 84 65 20 81 42 9 10 6 2 0 0 0 0 0 1 0 0 0 0 0 0 0 0 2 1 0 0 0 2 7 3 7 5 4 0 6 0 0 0 0 0 5 20 17
43 66 130 83 83 28 34 19 8 13 4 0 0 1 0 0 0 1 0 0 0 0 0 0 0 0 0 1 0 0 0 2 21 15 8 3 37 12 7 2 0 0 4 11 26 1 2
117 91 92 131 19 33 19 10 9 10 4 0 0 0 1 0 0 0 0 0 0 0 0 0 0 0 0 4 0 0 0 0 7 9 1 5 0 0 0 0 0 5 24 6 5 0 0
134 64 133 80 22 45 23 5 11 11 5 0 1 0 0 0 0 0 0 0 0 0 0 0 0 0 0 0 0 0 0 0 3 0 0 0 1 0 0 2 0 10 2 0 0 0 0
119 112 52 8 42 36 46 7 11 13 3 0 1 0 0 0 0 0 0 0 0 0 0 0 0 0 0 0 0 0 0 0 0 0 0 0 0 0 0 0 0 0 0 0 0 0 0
77 54 41 95 58 82 60 13 15 9 5 0 4 0 0 0 0 0 0 0 0 0 0 0 0 0 0 0 0 0 0 0 0 0 0 0 0 0 0 0 0 0 0 0 0 0 0
64 78 97 89 70 47 49 18 17 9 4 13 0 0 0 0 0 0 0 0 0 0 0 0 0 0 0 0 0 0 0 0 0 0 0 0 0 0 0 0 0 0 0 0 0 0 0
68 86 105 74 70 62 9 26 17 6 11 0 0 0 0 0 0 0 0 0 0 0 0 0 0 0 0 0 0 0 0 0 0 0 0 0 0 0 0 0 0 0 0 0 0 0 0
58 97 92 66 18 63 15 26 22 13 5 0 0 2 1 0 2 0 0 0 0 0 0 0 0 0 0 0 0 0 0 0 0 0 0 0 0 0 0 0 0 0 0 0 0 0 0
62 87 113 57 8 10 18 27 18 21 8 0 0 5 0 0 0 0 0 0 0 0 0 0 0 0 0 0 0 0 0 0 0 0 0 0 0 0 0 0 0 0 0 0 0 0 0
55 74 105 94 62 11 20 21 18 19 0 0 0 3 8 0 0 0 0 0 0 0 0 0 0 0 0 0 0 0 0 0 0 0 0 0 0 0 0 0 0 0 0 0 0 0 0
29 91 80 57 19 20 22 23 17 5 0 0 0 0 0 1 0 0 0 0 0 0 0 0 0 0 0 0 0 0 0 0 0 0 0 0 0 0 0 0 0 0 0 0 0 0 0
34 88 95 70 24 20 22 22 9 0 0 0 0 0 0 0 0 0 0 0 0 0 0 0 0 0 0 0 0 0 0 0 0 0 0 0 0 0 0 0 0 0 0 0 0 0 0
29 77 57 41 91 29 20 22 8 1 0 0 0 0 0 0 0 0 0 0 0 0 0 0 0 0 0 0 0 0 0 0 0 0 0 0 0 0 0 0 0 0 0 0 0 0 0
45 52 30 21 41 13 23 29 19 1 0 0 0 0 0 0 0 0 0 0 0 0 0 0 0 0 0 0 0 0 0 0 0 0 0 0 0 0 0 0 0 0 0 0 0 0 0
37 55 61 40 28 10 14 24 30 10 0 0 0 0 0 0 0 0 0 0 0 0 0 0 0 0 0 0 0 0 0 0 0 0 0 0 0 0 0 0 0 0 0 0 0 0 0
29 46 57 33 48 17 18 24 35 19 0 0 0 0 0 0 0 0 0 0 0 0 0 0 0 0 0 0 0 0 0 0 0 0 0 0 0 0 0 0 0 0 0 0 0 0 0
40 25 23 8 35 12 17 4 19 6 0 0 0 0 0 0 0 0 0 0 0 0 0 0 0 0 0 0 0 0 0 0 0 0 0 0 0 0 0 0 0 0 0 0 0 0 0
7 5 11 9 19 11 13 11 17 16 0 0 0 0 0 0 0 0 0 0 0 0 0 0 0 0 0 0 0 0 0 0 0 0 0 0 0 0 0 0 0 0 0 0 0 0 0
6 4 8 21 22 17 10 2 0 23 0 0 0 0 0 0 0 0 0 0 0 0 0 0 0 0 0 0 0 0 0 0 0 0 0 0 0 0 0 0 0 0 0 0 0 0 0
CIN
-112 -98 -0 -0 -97 -0 -0 -0 -0 -0 -0 -0 -0 -0 -0 -0 -0 -1 -3 -1 -0 -0 -0 -0 -0 -0 -0 -0 -0 -0 -6 -19 -11 -12 -11 -3 -10 -3 -0 -10 -18 -1 -9 -0 -0 -53 -169
-146 -60 -40 -7 -31 -68 -0 -0 -0 -0 -0 -0 -0 -1 -0 -0 -0 -2 -0 -3 -0 -0 -0 -0 -0 -0 -0 -0 -0 -0 -0 -28 -21 -26 -15 -8 -4 -29 -0 -19 -10 -1 -6 -8 -0 -10 -50
-36 -55 -48 -34 -33 -21 -57 -0 -0 -0 -0 -0 -0 -0 -1 -0 -0 -1 -3 -0 -0 -0 -0 -0 -0 -0 -0 -0 -0 -0 -8 -33 -52 -44 -12 -1 -9 -0 -0 -6 -8 -45 -4 -0 -2 -4 -58
-0 -0 -0 -52 -29 -41 -35 -3 -0 -0 -0 -0 -0 -0 -0 -0 -4 -2 -0 -0 -0 -0 -0 -0 -0 -0 -0 -0 -0 -0 -32 -37 -63 -51 -58 -21 -5 -0 -18 -36 -4 -3 -6 -0 -0 -0 -0
-0 -0 -1 -0 -37 -29 -42 -10 -0 -0 -0 -0 -0 -1 -0 -2 -4 -3 -0 -0 -0 -0 -0 -0 -0 -0 -0 -1 -8 -0 -0 -9 -30 -34 -32 -9 -3 -0 -2 -4 -2 -1 -3 -0 -1 -0 -0
-0 -0 -0 -4 -6 -29 -62 -26 -0 -0 -0 -0 -0 -0 -1 -5 -4 -0 -0 -0 -0 -0 -0 -0 -0 -0 -0 -0 -0 -0 -0 -10 -22 -12 -2 -5 -0 -0 -0 -1 -1 -0 -12 -7 -0 -0 -13
-0 -0 -0 -0 -0 -5 -43 -17 -0 -0 -0 -0 -0 -0 -2 -0 -1 -0 -0 -0 -0 -0 -0 -0 -0 -0 -0 -0 -0 -53 -0 -23 -14 -2 -0 -0 -0 -0 -0 -0 -0 -39 -37 -14 -29 -28 -27
-0 -0 -0 -0 -5 -2 -73 -8 -0 -0 -0 -0 -0 -1 -0 -2 -2 -5 -0 -0 -0 -0 -0 -0 -0 -0 -0 -0 -3 -14 -39 -5 -0 -0 -0 -1 -0 -0 -0 -0 -39 -20 -42 -24 -14 -86 -10
-0 -0 -0 -0 -0 -19 -0 -0 -0 -0 -0 -0 -0 -2 -0 -1 -2 -2 -0 -0 -0 -0 -0 -0 -0 -0 -0 -0 -0 -0 -0 -6 -0 -0 -0 -5 -0 -0 -0 -6 -48 -17 -30 -23 -13 -1 -19
-0 -0 -0 -0 -0 -2 -0 -14 -0 -0 -0 -0 -0 -0 -0 -0 -0 -12 -3 -0 -0 -0 -0 -0 -0 -0 -13 -31 -0 -0 -0 -2 -0 -0 -0 -6 -2 -0 -0 -0 -0 -0 -0 -0 -5 -0 -1
-0 -0 -0 -0 -0 -0 -3 -1 -0 -0 -0 -0 -0 -0 -0 -0 -0 -6 -0 -0 -0 -0 -0 -0 -0 -0 -0 -4 -0 -0 -0 -3 -0 -0 -0 -0 -20 -4 -8 -20 -0 -0 -43 -21 -26 -1 -0
-0 -0 -0 -0 -0 -0 -0 -3 -0 -0 -0 -0 -0 -0 -1 -0 -0 -0 -0 -0 -0 -0 -0 -0 -0 -0 -0 -0 -0 -0 -0 -0 -5 -0 -0 -0 -0 -0 -0 -0 -0 -80 -22 -20 -34 -0 -0
-0 -0 -0 -0 -0 -0 -0 -0 -0 -0 -0 -0 -0 -0 -0 -0 -4 -0 -0 -0 -0 -0 -0 -0 -0 -0 -1 -0 -0 -0 -0 -0 -0 -0 -0 -0 -0 -0 -0 -40 -0 -57 -21 -0 -0 -0 -0
-0 -2 -0 -2 -0 -0 -0 -0 -0 -0 -0 -0 -0 -0 -0 -0 -0 -0 -0 -0 -0 -0 -0 -0 -0 -0 -0 -0 -0 -0 -0 -0 -0 -0 -4 -0 -0 -0 -0 -0 -2 -0 -0 -0 -0 -0 -0
-6 -0 -0 -0 -17 -0 -0 -0 -0 -0 -0 -0 -0 -0 -0 -0 -0 -0 -0 -0 -0 -0 -0 -0 -0 -0 -0 -0 -0 -0 -0 -0 -0 -0 -0 -0 -0 -11 -0 -0 -0 -0 -0 -0 -0 -0 -0
-0 -0 -0 -0 -0 -0 -0 -0 -0 -0 -0 -0 -0 -0 -0 -0 -0 -0 -0 -0 -0 -0 -0 -0 -0 -0 -0 -0 -0 -0 -0 -0 -0 -0 -0 -0 -0 -0 -0 -0 -0 -0 -0 -0 -0 -0 -0
-0 -0 -0 -0 -3 -0 -2 -0 -0 -0 -0 -0 -0 -0 -0 -0 -0 -0 -0 -0 -0 -0 -0 -0 -0 -0 -0 -0 -0 -0 -0 -0 -0 -0 -0 -0 -0 -0 -0 -0 -0 -0 -0 -0 -0 -0 -0
-0 -0 -0 -7 -0 -0 -0 -0 -0 -0 -0 -0 -0 -0 -0 -0 -3 -0 -0 -0 -0 -0 -0 -0 -0 -0 -0 -0 -0 -0 -0 -0 -0 -0 -0 -0 -0 -0 -0 -0 -0 -0 -0 -0 -0 -0 -0
-0 -0 -0 -0 -28 -0 -0 -0 -0 -0 -0 -0 -0 -1 -0 -0 -0 -0 -0 -0 -0 -0 -0 -0 -0 -0 -0 -0 -0 -0 -0 -0 -0 -0 -0 -0 -0 -0 -0 -0 -0 -0 -0 -0 -0 -0 -0
-2 -0 -0 -0 -0 -0 -0 -0 -0 -0 -0 -0 -0 -0 -2 -0 -0 -0 -0 -0 -0 -0 -0 -0 -0 -0 -0 -0 -0 -0 -0 -0 -0 -0 -0 -0 -0 -0 -0 -0 -0 -0 -0 -0 -0 -0 -0
-0 -0 -0 -0 -0 -0 -0 -0 -0 -0 -0 -0 -0 -0 -0 -0 -0 -0 -0 -0 -0 -0 -0 -0 -0 -0 -0 -0 -0 -0 -0 -0 -0 -0 -0 -0 -0 -0 -0 -0 -0 -0 -0 -0 -0 -0 -0
-0 -0 -0 -0 -0 -0 -0 -0 -0 -0 -0 -0 -0 -0 -0 -0 -0 -0 -0 -0 -0 -0 -0 -0 -0 -0 -0 -0 -0 -0 -0 -0 -0 -0 -0 -0 -0 -0 -0 -0 -0 -0 -0 -0 -0 -0 -0
-0 -0 -0 -0 -0 -3 -0 -0 -0 -0 -0 -0 -0 -0 -0 -0 -0 -0 -0 -0 -0 -0 -0 -0 -0 -0 -0 -0 -0 -0 -0 -0 -0 -0 -0 -0 -0 -0 -0 -0 -0 -0 -0 -0 -0 -0 -0
-0 -0 -0 -8 -0 -13 -0 -1 -0 -0 -0 -0 -0 -0 -0 -0 -0 -0 -0 -0 -0 -0 -0 -0 -0 -0 -0 -0 -0 -0 -0 -0 -0 -0 -0 -0 -0 -0 -0 -0 -0 -0 -0 -0 -0 -0 -0
-0 -0 -0 -0 -0 -0 -0 -2 -0 -0 -0 -0 -0 -0 -0 -0 -0 -0 -0 -0 -0 -0 -0 -0 -0 -0 -0 -0 -0 -0 -0 -0 -0 -0 -0 -0 -0 -0 -0 -0 -0 -0 -0 -0 -0 -0 -0
-0 -0 -0 -0 -0 -5 -10 -0 -0 -0 -0 -0 -0 -0 -0 -0 -0 -0 -0 -0 -0 -0 -0 -0 -0 -0 -0 -0 -0 -0 -0 -0 -0 -0 -0 -0 -0 -0 -0 -0 -0 -0 -0 -0 -0 -0 -0
-0 -0 -0 -8 -0 -4 -0 -0 -0 -0 -0 -0 -0 -0 -0 -0 -0 -0 -0 -0 -0 -0 -0 -0 -0 -0 -0 -0 -0 -0 -0 -0 -0 -0 -0 -0 -0 -0 -0 -0 -0 -0 -0 -0 -0 -0 -0
-0 -0 -0 -1 -0 -3 -0 -0 -0 -0 -0 -0 -0 -0 -0 -0 -0 -0 -0 -0 -0 -0 -0 -0 -0 -0 -0 -0 -0 -0 -0 -0 -0 -0 -0 -0 -0 -0 -0 -0 -0 -0 -0 -0 -0 -0 -0
-0 -0 -0 -0 -1 -0 -0 -0 -0 -0 -0 -0 -0 -0 -0 -0 -0 -0 -0 -0 -0 -0 -0 -0 -0 -0 -0 -0 -0 -0 -0 -0 -0 -0 -0 -0 -0 -0 -0 -0 -0 -0 -0 -0 -0 -0 -0
Wind_Speed
21 21 21 21 23 21 18 15 13 12 10 10 10 9 11 12 10 11 8 9 13 10 5 6 7 8 4 2 6 5 7 7 5 3 5 14 8 7 10 7 8 15 13 13 10 3 2
25 24 22 20 20 23 20 17 14 13 11 9 10 6 10 10 10 10 8 9 11 10 6 5 6 7 1 3 3 4 6 1 3 4 4 9 7 12 7 5 14 7 15 15 7 1 2
27 28 25 23 21 20 22 19 16 14 11 9 8 7 7 10 8 11 9 10 10 9 8 5 5 2 2 8 2 5 3 2 2 3 2 5 2 8 10 6 6 6 12 12 11 5 2
30 29 28 25 24 21 17 18 15 15 12 10 7 6 8 8 7 8 11 10 9 9 9 6 5 1 6 5 2 3 1 3 0 2 1 6 1 6 7 3 1 13 7 8 13 15 2
28 30 29 28 27 23 16 19 17 16 13 10 8 4 7 5 6 10 10 8 8 6 5 4 2 3 7 5 2 5 2 3 4 2 2 4 3 4 6 3 6 10 8 9 7 14 6
30 29 29 27 27 25 17 20 19 17 13 9 6 5 5 3 6 9 8 7 5 6 2 3 4 3 4 2 2 4 3 4 4 4 3 3 3 1 2 2 12 9 10 9 8 5 13
31 31 30 29 28 26 16 17 19 17 14 9 7 5 2 3 5 10 3 2 3 2 0 3 3 4 4 5 4 1 4 4 3 1 3 2 3 5 7 8 1 10 13 11 11 11 5
32 34 31 30 27 27 20 16 20 17 14 11 8 5 3 1 4 2 3 2 3 1 2 5 4 4 2 2 3 2 8 3 1 3 4 3 2 8 5 9 4 8 14 7 11 15 6
32 34 32 32 29 29 23 17 20 17 15 12 9 6 5 1 2 3 3 3 2 2 2 1 1 2 1 4 3 4 4 4 2 3 2 1 3 10 5 4 4 5 13 11 10 7 6
34 34 34 34 31 30 23 19 20 18 15 12 10 9 6 4 3 3 3 5 2 3 5 8 3 2 1 2 3 4 2 3 1 2 2 4 4 9 9 2 4 7 7 13 15 7 2
35 36 33 33 32 32 27 22 22 19 15 13 12 10 9 8 1 3 4 5 4 5 7 6 7 1 2 1 4 1 3 3 4 5 4 1 9 9 4 4 4 4 10 11 17 10 5
32 36 34 33 32 30 31 24 24 20 18 15 13 12 9 3 2 3 6 5 4 8 1 6 3 4 1 3 1 4 1 2 2 4 11 7 2 5 4 4 4 7 11 11 9 4 1
32 35 36 34 38 38 32 26 25 21 19 17 14 12 9 4 3 5 5 4 6 7 3 5 3 3 3 3 2 2 4 4 3 5 8 6 7 6 5 7 11 13 7 4 3 2 3
30 33 37 41 45 32 26 27 27 24 20 17 14 14 4 1 4 5 4 5 8 3 4 1 3 5 1 3 2 2 3 5 5 5 4 3 4 6 7 5 4 5 4 4 4 5 4
28 34 38 42 40 24 22 28 28 26 21 18 18 3 2 1 4 4 4 5 9 7 7 6 1 2 4 1 2 3 2 2 2 4 5 5 5 5 3 3 2 3 4 3 7 4 5
25 34 40 39 39 26 27 29 29 26 23 24 6 4 2 2 4 4 4 3 3 5 7 4 5 4 1 1 2 3 2 3 3 4 2 3 5 2 3 0 1 3 2 4 5 3 2
27 35 37 41 25 17 31 31 30 28 28 18 4 5 2 3 3 2 4 6 4 4 5 6 3 3 3 3 2 2 3 5 5 6 6 4 5 4 4 4 2 5 3 5 4 4 4
31 36 41 22 26 15 32 32 31 29 27 6 5 5 1 3 3 2 3 6 4 5 2 2 2 2 5 4 2 4 4 3 2 1 4 3 4 3 1 3 1 1 2 3 5 3 2
30 33 38 27 25 31 33 33 31 31 24 6 5 4 1 2 4 3 4 4 4 4 5 5 3 3 0 2 4 4 3 2 4 5 3 1 2 3 8 6 4 2 1 3 4 3 3
29 33 33 30 20 33 34 32 32 32 22 5 5 6 2 1 2 3 4 4 5 3 3 3 2 3 3 2 4 4 2 0 2 2 2 3 3 6 7 6 3 2 2 3 5 3 3
27 31 33 35 22 32 32 31 30 30 15 3 3 4 5 8 5 5 2 6 6 5 1 3 1 2 2 3 3 4 4 3 2 3 2 4 3 2 3 4 4 3 3 3 5 5 5
23 25 26 24 9 27 29 28 28 27 10 4 5 6 2 4 4 7 5 7 7 4 5 3 4 4 4 4 2 4 6 3 4 1 2 2 1 2 4 3 4 3 5 6 6 3 7
23 23 25 27 12 19 26 24 24 24 7 3 0 2 5 4 5 5 5 7 8 9 3 4 6 6 6 5 4 3 1 2 4 6 2 2 4 3 4 4 5 6 5 4 3 3 4
20 18 24 26 24 26 20 19 19 23 5 3 2 4 5 3 4 5 6 2 10 4 7 3 3 5 4 3 4 3 2 5 6 4 2 4 3 2 1 4 3 7 4 3 6 6 5
19 16 16 18 21 25 23 20 19 22 6 4 1 3 4 4 2 2 6 6 6 7 5 4 3 1 3 3 5 4 5 3 2 4 5 2 4 2 3 2 6 1 2 1 1 6 1
19 16 13 8 12 22 20 19 17 19 7 4 2 1 4 7 2 2 4 4 5 4 3 3 3 1 2 3 3 4 4 4 3 1 4 5 5 4 2 3 4 5 3 2 2 5 4
19 16 13 13 20 21 19 17 14 16 9 4 2 2 5 6 4 3 3 4 4 5 4 3 2 2 2 2 3 3 3 5 4 4 3 2 2 4 2 2 7 5 4 2 1 6 3
18 19 16 10 20 21 20 17 13 14 11 4 1 3 4 5 4 5 4 3 3 3 5 3 4 3 3 3 3 3 3 4 3 4 5 6 5 4 2 2 6 1 1 3 3 5 5
21 28 21 22 23 21 19 14 11 14 12 6 3 3 3 7 3 1 5 3 3 1 6 3 3 2 2 4 1 3 2 2 3 3 3 1 5 4 7 5 1 4 1 1 3 3 5
Wind_Direction
279 274 273 269 266 258 252 249 252 255 264 281 294 315 313 325 310 315 308 324 313 303 308 313 329 341 353 331 253 223 290 332 344 315 210 236 214 206 215 198 243 229 198 217 276 164 105
315 282 277 275 269 258 247 244 242 246 256 266 285 299 311 317 315 308 305 324 307 316 312 304 321 345 356 285 262 317 313 240 346 298 316 192 220 197 301 263 197 205 223 205 199 207 82
327 333 289 281 274 266 242 238 236 241 249 255 273 298 303 310 307 319 306 322 306 315 316 303 304 308 274 245 262 326 41 72 316 326 90 33 309 177 191 216 239 247 202 189 202 223 121
323 327 325 303 284 275 255 233 228 237 237 248 262 297 300 312 308 302 313 315 308 298 291 277 278 66 248 260 208 356 162 130 18 52 250 153 326 214 235 324 196 206 208 165 191 189 81
322 314 315 320 308 282 267 224 220 234 230 237 254 267 293 309 315 322 306 308 306 311 285 260 271 173 272 320 241 278 268 262 181 153 251 259 156 194 126 200 149 183 184 171 166 154 117
321 316 311 311 308 288 273 230 215 227 224 223 231 252 278 324 310 303 306 302 287 324 285 242 254 319 284 6 293 285 301 289 225 261 196 32 142 69 58 239 173 163 171 175 148 144 126
318 316 310 304 310 306 260 246 212 215 219 208 204 235 258 270 316 294 338 27 49 31 271 222 240 246 281 306 265 84 350 308 185 284 352 275 161 190 151 234 329 154 151 140 143 162 111
316 318 310 302 300 297 262 234 207 212 206 193 194 216 165 289 301 323 113 132 155 157 249 230 257 269 256 351 285 3 1 317 314 305 268 225 184 145 189 261 290 163 145 126 129 141 92
316 316 311 304 298 296 274 218 201 200 206 187 174 187 157 226 81 54 181 210 158 116 136 270 236 288 318 30 327 298 353 315 230 249 218 211 121 144 163 217 205 102 138 122 108 144 25
313 316 307 311 295 304 279 203 196 194 193 180 169 175 165 137 93 187 200 170 148 97 72 326 349 274 154 129 268 242 231 251 48 328 124 15 325 141 183 200 99 86 123 136 130 126 90
310 312 304 305 298 299 295 192 189 186 178 177 174 168 175 169 57 187 163 148 96 63 57 287 303 166 302 192 294 278 222 262 352 21 190 81 106 148 56 36 25 107 128 134 136 117 145
304 310 307 302 305 297 304 189 182 175 173 176 177 167 169 145 142 242 127 88 60 50 312 317 291 300 43 346 311 311 317 155 253 17 56 48 358 46 3 23 53 128 92 79 68 60 150
306 309 309 304 305 295 286 184 172 167 171 169 174 169 156 155 179 146 103 64 53 93 257 272 264 296 243 245 254 321 338 10 30 54 27 20 21 324 10 46 28 113 82 103 152 142 203
312 310 310 310 297 285 280 176 166 163 165 164 169 153 205 122 101 117 78 61 79 203 185 271 273 285 194 322 297 159 334 26 7 57 71 77 54 7 341 48 125 66 119 162 143 173 162
308 312 303 295 300 269 253 169 164 157 159 159 137 97 94 128 120 82 89 70 181 196 174 164 285 299 316 30 110 7 31 77 324 28 119 104 46 329 73 72 165 234 174 218 102 28 71
316 300 297 298 290 295 185 164 159 153 157 152 119 119 130 147 92 76 81 204 162 169 132 135 191 202 185 271 58 42 47 344 350 31 337 167 87 323 305 12 231 167 233 40 11 117 200
311 302 296 297 292 295 164 159 154 157 156 155 86 103 198 119 81 65 176 211 173 196 169 165 183 156 235 199 207 63 29 349 10 349 14 66 66 313 14 20 20 5 18 45 106 108 151
313 312 310 308 312 249 154 154 153 159 159 123 113 108 103 99 137 151 188 177 144 159 127 124 151 222 183 196 96 64 96 69 48 65 40 19 103 79 112 289 248 129 69 83 109 296 34
314 318 315 329 286 161 154 156 156 163 163 134 97 97 41 89 175 225 254 131 126 147 181 165 215 225 39 142 92 95 78 354 43 48 76 353 35 62 347 353 6 10 283 108 101 68 233
320 318 322 317 284 159 154 155 161 164 172 98 111 123 133 226 242 203 159 153 126 160 152 167 161 58 55 59 53 129 108 166 59 74 76 114 105 146 172 209 180 290 260 170 122 117 191
318 320 323 319 160 154 153 158 165 167 168 102 107 174 173 177 218 214 211 149 132 138 121 155 63 135 158 107 81 101 56 43 13 6 51 87 96 95 209 191 138 206 254 213 189 199 165
315 322 326 340 173 154 154 162 167 166 113 81 130 136 83 159 145 158 229 184 151 133 133 187 156 151 118 122 151 138 123 177 204 354 58 34 159 102 10 352 196 258 244 233 246 225 252
316 324 333 335 159 172 158 168 168 165 132 116 123 57 112 135 128 149 205 169 169 127 35 110 143 108 96 156 128 114 89 169 186 145 151 96 122 78 283 359 0 333 272 220 259 236 207
311 328 327 328 180 164 168 168 169 166 130 124 175 108 93 146 127 187 165 109 137 113 125 68 72 107 191 130 112 90 71 95 80 63 106 127 92 74 229 35 22 240 275 186 198 255 264
315 315 320 347 150 156 165 168 178 172 76 79 54 102 116 105 121 64 119 110 94 72 71 88 41 91 132 99 75 61 357 30 36 21 45 75 123 109 115 171 279 336 303 64 95 281 304
316 317 322 336 228 160 165 167 174 176 109 82 53 328 91 116 270 355 105 123 114 101 47 62 39 101 94 92 93 143 180 179 213 307 43 68 72 117 133 133 234 228 268 188 99 287 246
312 311 300 357 158 160 161 164 183 177 117 95 46 6 78 99 348 1 106 142 111 96 104 120 147 65 43 91 101 148 205 168 157 176 162 75 40 170 173 233 284 243 249 93 153 249 289
310 291 283 275 166 163 164 170 169 174 144 84 358 15 107 96 18 13 30 75 60 85 136 199 77 337 47 87 129 203 141 221 118 170 176 170 152 199 111 168 287 310 346 180 267 313 312
309 294 278 169 160 160 154 143 150 168 142 97 88 358 72 79 110 66 81 43 42 73 125 40 137 113 159 101 129 116 119 62 146 203 352 183 184 187 175 211 296 325 355 344 10 300 311